Theta_e
314 314 313 314 314 313 313 313 313 313 313 312 312 311 311 311 311 311 311 311 310 310 310 310 310 310 310 311 310 310 309 309 309 310 310 310 310 310 310 310 311 311 310 310 309 309 308 308 307 307 306 307 306 307 307 308 307 306 305 305 305 305 305 305 305 305 304 304 305
313 313 313 313 313 313 313 313 313 313 313 312 312 312 312 312 311 311 311 311 311 310 311 311 311 311 311 310 310 310 309 309 309 309 309 309 310 310 310 310 311 311 311 310 309 308 307 307 307 306 306 306 306 306 307 310 309 307 305 305 305 305 305 304 304 304 305 304 305
313 313 313 312 312 312 312 311 312 312 312 312 312 312 312 312 312 311 311 311 311 311 311 310 312 312 311 310 310 309 309 309 309 309 309 309 309 309 310 309 310 311 311 310 310 309 307 307 307 306 306 305 305 305 306 308 307 306 305 305 305 305 305 304 304 305 305 305 305
313 312 312 312 312 312 311 311 311 312 312 312 313 313 313 312 312 312 312 312 312 312 311 311 313 313 312 311 310 310 309 309 309 309 309 308 309 309 309 309 309 310 310 310 310 309 308 307 307 306 306 305 305 305 305 306 306 305 305 305 305 305 305 304 304 305 305 305 305
312 312 312 312 312 312 312 311 311 311 312 312 312 312 312 312 313 313 312 312 311 311 312 313 314 314 313 312 310 309 309 309 309 309 309 308 309 309 309 309 309 309 310 310 310 309 309 307 306 306 306 306 305 305 305 306 305 305 305 305 305 305 305 305 305 305 305 305 305
312 312 312 312 312 312 312 312 312 311 311 312 311 311 311 311 311 311 311 311 311 312 312 314 314 314 313 311 310 309 309 309 309 309 309 309 309 309 309 308 309 309 310 310 310 310 309 308 306 306 306 306 307 307 306 306 305 305 305 305 305 305 305 304 305 305 305 305 305
312 312 311 311 312 312 312 312 312 311 311 311 311 310 310 310 311 311 311 311 311 312 312 313 313 312 311 310 309 309 309 309 309 309 309 309 309 309 309 309 309 309 309 309 309 309 309 309 306 305 305 305 305 306 307 306 305 305 305 305 305 305 306 306 306 306 305 305 305
312 312 311 311 311 312 312 312 312 311 311 310 310 310 310 310 311 311 310 311 311 311 312 312 312 312 311 311 310 310 309 309 309 309 309 308 308 309 310 310 309 309 309 310 309 309 308 308 306 305 305 305 305 305 306 307 306 306 305 305 305 306 307 309 309 308 306 306 306
312 312 312 312 311 311 312 312 311 311 310 310 310 310 310 311 311 311 310 310 310 311 312 311 312 312 311 311 311 311 311 311 310 309 309 309 309 309 310 310 310 309 309 310 309 309 308 307 306 305 305 305 304 305 307 308 308 308 307 305 305 305 306 308 309 308 307 307 307
312 312 312 312 311 312 312 311 311 310 310 310 310 310 310 311 311 310 310 310 312 312 311 311 311 311 311 311 312 312 312 312 312 311 311 311 311 311 311 310 310 309 309 309 309 309 308 307 306 306 306 306 306 306 308 309 309 309 307 305 306 306 307 307 307 307 307 307 307
312 312 312 311 311 311 311 311 311 310 310 309 309 310 310 310 310 310 311 312 312 312 311 310 311 310 310 310 311 312 313 312 312 312 312 312 311 311 311 310 310 310 310 310 309 309 308 307 306 307 307 306 306 307 309 310 309 309 308 307 307 307 307 306 307 307 307 307 307
312 312 312 311 311 311 311 310 310 309 309 309 309 309 309 309 310 310 311 312 311 310 310 311 310 310 310 310 311 312 312 312 312 312 311 311 311 311 311 311 311 311 310 310 310 309 308 308 308 308 308 307 307 308 309 310 309 309 308 308 308 308 308 308 308 308 308 307 307
312 312 311 311 311 311 310 310 309 309 309 309 309 309 309 309 310 311 311 311 310 309 310 311 310 310 310 310 311 312 312 312 312 312 311 311 311 311 311 310 310 310 310 310 310 309 309 309 309 309 308 307 308 309 309 310 309 309 308 308 308 308 308 308 308 308 308 307 307
311 311 311 311 311 310 310 309 309 308 308 309 309 309 309 309 310 310 310 310 310 309 310 310 310 310 310 311 311 311 312 312 311 311 311 311 311 311 310 311 310 310 310 310 310 309 309 309 309 309 308 308 308 309 309 309 309 309 308 308 308 308 308 308 308 308 308 307 307
311 311 311 311 310 310 309 309 308 308 308 308 309 309 309 309 310 310 310 310 309 309 309 309 309 310 310 310 310 311 311 311 311 311 310 310 311 310 310 310 311 311 310 310 310 310 309 309 309 309 309 309 309 309 309 309 309 309 309 308 308 308 308 308 308 308 308 307 307
310 310 310 310 310 309 309 308 308 308 308 308 308 308 309 309 309 310 310 309 309 309 309 309 309 309 310 310 310 310 310 310 310 309 309 309 310 310 310 310 310 310 310 310 310 309 310 309 309 309 309 309 309 309 309 309 309 309 309 309 309 309 308 308 308 308 308 307 306
310 310 310 309 309 309 308 308 307 307 308 308 308 308 308 308 309 309 310 309 309 309 309 309 309 309 309 309 309 309 309 309 309 308 308 308 309 309 310 310 310 310 311 310 310 309 309 309 310 310 310 310 310 310 310 309 309 309 309 309 309 309 309 308 308 308 308 307 306
309 309 309 309 308 308 308 308 308 308 308 308 308 308 308 308 309 309 309 309 309 309 309 309 309 309 309 308 309 308 308 308 308 307 308 308 309 310 310 310 310 311 311 310 310 309 309 310 310 310 310 310 310 310 310 310 310 309 309 309 309 309 309 309 309 308 308 307 307
309 309 308 308 308 308 308 308 308 308 308 308 308 308 308 308 308 308 309 309 309 309 308 308 308 309 309 308 308 308 308 307 308 308 308 309 310 310 311 310 311 311 311 310 310 309 309 310 310 310 310 310 310 310 310 310 310 309 309 309 309 309 308 308 308 308 308 307 307
308 308 308 308 308 308 308 308 307 308 307 308 308 307 307 307 308 308 308 308 308 308 308 308 308 308 309 309 309 308 308 307 308 308 309 310 310 311 311 311 311 311 311 311 310 310 310 310 310 310 310 309 309 309 309 309 309 309 309 309 309 308 308 308 308 308 308 307 307
308 308 308 308 308 308 308 308 307 307 308 308 308 307 307 307 307 307 307 307 308 308 308 308 308 309 309 310 309 309 309 308 309 309 309 310 310 311 311 311 311 311 310 310 310 310 310 309 309 310 309 309 309 309 309 309 308 308 308 308 308 308 308 308 308 308 308 307 307
308 308 308 308 308 308 307 307 307 308 308 308 307 307 307 307 307 307 307 308 308 308 308 307 308 309 310 309 309 309 309 309 310 310 310 309 310 310 311 311 311 311 310 310 310 310 309 309 309 309 309 309 309 309 308 308 308 307 307 307 308 308 308 308 308 308 308 308 308
308 308 308 308 308 308 307 307 307 307 307 307 307 307 307 307 307 307 307 308 308 307 307 307 308 308 309 310 309 310 310 310 310 310 311 310 310 310 310 311 310 310 310 309 309 309 309 309 309 309 309 308 308 308 308 308 308 307 307 306 307 307 308 308 307 308 308 308 308
308 308 308 308 307 307 307 307 307 307 307 307 307 307 306 306 306 306 307 307 307 307 306 307 307 308 309 309 310 310 309 309 309 310 310 310 310 310 310 310 310 310 309 309 309 309 308 308 308 309 309 309 309 308 308 308 307 307 307 306 306 306 307 307 308 308 308 308 308
308 308 307 307 307 307 306 306 306 306 306 306 306 306 306 306 306 306 306 306 306 306 306 306 307 307 308 308 308 309 309 309 309 309 309 310 310 310 310 309 309 308 307 307 308 308 308 307 307 308 308 308 308 308 308 308 307 307 307 307 306 306 306 306 307 308 308 308 309
308 307 307 307 306 306 306 306 306 306 306 307 306 306 306 306 306 306 306 306 306 306 306 306 307 307 307 307 307 308 308 309 309 309 309 309 309 309 309 309 308 307 307 307 307 308 308 307 307 307 307 308 308 308 308 307 307 307 307 307 306 306 306 305 306 307 307 308 309
307 307 307 306 306 306 306 306 306 306 306 306 306 306 305 306 305 305 305 305 305 305 306 306 306 307 307 306 306 307 307 308 309 309 309 309 309 309 308 307 307 306 306 307 307 308 308 307 306 307 307 308 307 307 307 306 307 307 307 306 306 306 306 306 305 305 306 307 308
307 306 306 306 306 305 305 305 305 306 306 306 305 305 305 305 305 305 305 305 305 305 305 306 306 306 306 306 306 306 306 307 308 309 309 309 309 308 307 306 306 306 306 307 307 308 308 308 307 307 307 308 308 308 307 306 306 306 306 306 306 306 305 305 305 305 305 306 306
306 306 306 305 305 305 305 305 305 305 305 305 305 305 305 305 305 305 305 305 305 305 305 305 306 306 306 305 306 306 306 307 307 308 308 309 308 307 306 306 306 306 306 307 307 308 308 308 308 307 307 306 307 307 307 306 307 306 306 306 306 306 305 305 305 305 305 304 305
305 305 305 304 304 304 304 304 305 305 305 305 305 305 305 304 304 304 304 304 304 304 305 305 305 305 305 305 305 306 305 306 306 307 307 308 307 307 306 305 305 305 306 307 308 308 309 309 309 308 307 306 307 307 307 307 306 306 305 305 305 305 305 304 304 304 304 304 304
305 304 304 303 303 303 303 304 305 305 305 305 305 304 304 304 304 304 304 304 304 305 305 305 305 305 305 305 305 305 305 305 306 306 306 306 306 306 305 305 305 306 306 307 308 308 309 309 309 308 308 307 307 307 307 307 307 306 305 305 305 305 305 305 305 304 304 304 303
304 304 303 302 302 302 302 303 304 304 304 304 304 304 304 303 303 304 304 304 304 305 305 305 304 304 304 304 304 304 305 305 305 305 306 306 305 305 305 305 305 305 306 308 308 308 309 309 308 308 308 307 307 307 308 308 307 306 305 305 305 305 305 306 306 305 304 304 303
304 303 303 302 302 302 302 303 303 304 304 304 304 304 303 303 304 304 304 304 304 304 304 304 304 304 304 304 304 304 304 304 305 306 306 306 305 305 305 304 305 305 306 308 308 308 308 308 308 308 308 307 307 307 308 307 308 307 306 305 305 305 305 306 305 305 304 304 304
304 303 302 302 302 302 302 302 303 303 304 303 303 303 303 303 303 303 304 304 304 304 304 304 304 304 304 304 304 303 304 304 305 305 306 305 305 305 305 304 305 306 306 307 308 308 308 308 308 308 307 307 306 306 306 306 306 306 305 305 305 306 306 306 306 306 305 305 305
303 302 302 301 301 302 302 302 302 303 303 303 303 303 303 303 303 303 303 304 304 304 304 304 304 304 304 304 304 304 304 304 304 305 305 305 305 305 304 304 305 306 306 307 308 308 308 308 308 307 307 306 306 306 305 305 304 304 305 305 305 305 306 306 307 306 306 306 305
304 303 302 301 301 302 302 302 302 302 302 302 302 302 303 303 303 303 304 304 304 303 304 304 304 304 304 304 304 304 304 303 303 304 304 305 304 304 304 304 304 305 306 307 308 308 307 308 307 307 307 306 306 305 305 304 304 304 304 304 304 305 305 306 306 306 306 305 305
304 303 302 302 302 302 302 302 302 302 302 301 301 302 302 302 302 303 303 304 303 303 303 303 303 303 303 303 303 303 304 304 303 303 303 304 304 304 303 303 304 304 306 307 307 307 307 308 307 307 306 305 305 304 304 304 305 304 304 304 304 304 304 305 305 306 306 305 305
304 303 303 302 302 302 302 302 302 302 301 301 301 302 302 302 302 302 303 303 303 303 303 303 303 303 303 304 304 304 304 304 304 304 303 303 304 304 303 303 303 304 305 306 307 307 307 307 307 307 306 304 304 304 304 304 304 304 303 303 303 303 304 304 304 304 305 305 304
304 303 303 303 302 302 302 302 302 302 302 302 301 301 301 302 301 302 303 303 303 303 302 302 303 303 304 304 304 304 304 304 304 304 303 303 303 303 303 302 303 304 305 306 306 307 307 307 307 306 305 304 304 304 304 304 304 303 303 302 302 302 303 303 304 304 304 304 303
303 303 303 303 303 302 302 302 302 302 303 302 302 302 302 301 302 302 303 303 303 303 303 302 303 303 304 304 303 303 303 303 304 304 303 303 304 304 303 303 303 304 305 305 306 306 306 306 306 306 305 304 304 304 304 303 303 302 302 302 302 302 302 303 303 303 303 304 303
303 303 303 303 303 303 302 302 302 303 303 303 302 302 302 302 302 302 302 302 302 302 302 302 303 303 304 304 303 303 303 303 303 303 303 303 303 304 304 303 303 303 304 305 306 306 306 306 306 306 305 304 304 304 304 303 302 301 301 301 301 301 301 302 302 303 303 303 303
Wind_Speed
17 15 14 13 12 11 10 10 10 10 10 10 11 11 11 11 11 11 11 11 11 10 10 10 11 11 13 17 19 19 18 18 18 17 17 17 16 16 16 15 14 14 14 13 13 12 11 11 9 7 6 6 7 7 6 5 6 6 6 6 5 5 6 6 6 7 7 7 6
19 18 16 15 13 12 10 10 10 10 10 9 10 11 11 11 11 11 11 11 10 10 10 10 11 13 15 19 19 19 18 18 19 18 18 18 17 16 16 15 15 14 14 14 13 12 10 11 9 7 6 6 7 7 7 6 6 7 7 8 6 5 5 6 6 7 7 7 6
19 18 17 16 15 13 12 11 11 12 12 11 10 10 10 10 10 10 10 11 11 11 10 10 11 14 16 19 18 18 18 18 19 18 17 17 17 17 16 15 15 15 14 13 13 11 10 11 9 8 6 6 7 7 7 7 7 7 7 8 6 5 5 5 5 6 6 5 6
19 18 18 18 18 18 15 12 13 14 14 11 10 10 10 10 9 9 10 11 12 12 11 10 10 12 15 17 18 18 18 18 19 18 17 17 17 18 17 16 16 16 15 14 13 12 12 11 9 7 7 8 8 8 7 7 8 7 7 6 5 5 5 5 5 5 5 5 5
19 19 18 17 20 19 17 14 15 15 13 11 10 10 10 9 9 9 9 10 11 11 12 12 11 11 13 16 18 19 19 19 19 18 17 17 17 18 18 17 17 16 15 14 14 13 12 12 8 7 7 8 7 7 7 8 8 8 6 5 5 5 5 5 5 4 4 4 5
18 18 18 17 19 18 16 14 16 15 13 11 12 12 11 10 10 10 11 11 12 13 13 13 12 12 13 16 18 19 19 19 18 17 16 17 17 17 18 18 17 16 15 14 14 14 13 12 8 7 7 7 7 7 8 9 8 7 7 6 5 5 5 5 5 5 5 5 6
18 18 19 18 19 18 16 15 15 15 14 12 14 15 14 13 13 13 14 12 12 13 13 12 12 13 15 16 17 18 18 17 17 17 17 16 16 17 17 17 17 16 15 15 15 14 12 11 8 7 7 7 7 8 9 9 8 7 7 6 5 5 5 6 5 4 5 7 7
17 18 19 19 19 18 18 17 16 15 14 13 15 17 18 16 16 16 15 13 13 12 12 11 14 15 16 16 16 17 17 18 17 17 17 16 17 17 17 17 16 16 16 15 15 14 13 10 8 7 7 7 6 7 9 10 9 8 7 7 6 5 5 5 4 5 6 7 8
16 17 18 19 19 18 18 18 17 16 15 15 16 18 18 17 17 16 15 14 13 12 12 12 15 17 17 17 16 16 16 16 17 17 17 16 17 17 16 16 16 15 15 14 14 15 14 10 8 8 7 7 7 7 9 10 9 9 8 7 7 6 6 5 6 6 7 7 8
15 16 17 18 18 19 18 18 18 18 18 17 17 18 18 18 17 16 15 12 12 12 13 14 16 17 18 18 16 15 15 14 15 15 16 15 16 16 16 15 15 15 14 14 14 14 14 11 9 9 8 8 8 9 9 10 10 9 8 6 7 7 7 7 7 8 8 7 8
17 16 17 16 18 18 18 18 17 17 17 17 18 18 18 18 17 16 14 11 12 13 15 15 17 18 18 17 16 15 15 14 14 14 15 15 15 16 16 15 15 15 14 14 13 12 12 10 10 10 10 9 9 9 9 10 10 10 9 7 7 7 8 8 8 7 7 7 8
17 16 16 16 17 18 18 18 16 16 17 17 17 17 17 17 17 16 14 13 14 15 15 16 17 18 17 15 15 15 14 14 15 15 15 16 16 16 16 15 15 15 15 14 12 11 10 10 10 11 11 11 9 8 9 10 10 10 9 9 8 8 8 8 8 7 7 7 8
17 16 16 16 17 17 17 17 15 15 16 17 17 16 16 16 16 16 15 15 15 15 14 15 16 17 16 15 15 14 14 15 15 15 15 16 16 16 16 15 15 15 15 14 12 11 10 10 11 12 12 12 10 9 9 10 10 10 10 10 9 9 9 9 8 8 8 8 8
16 16 16 16 17 17 17 16 15 14 15 17 16 15 15 15 15 15 15 15 15 14 14 14 15 15 15 16 16 15 15 15 16 16 16 15 15 16 16 15 15 15 14 13 13 12 12 11 12 12 12 12 11 10 10 10 10 10 10 10 10 9 9 9 9 8 8 9 9
16 16 16 16 17 16 16 16 14 14 14 16 15 15 14 13 14 14 14 15 15 14 13 14 13 14 15 17 17 17 17 16 16 16 16 16 16 16 16 15 15 15 14 13 13 13 13 13 13 13 12 12 12 11 11 10 10 10 9 10 10 9 9 9 9 9 9 9 9
16 16 16 16 16 16 15 15 13 13 14 15 15 15 14 13 13 13 14 15 14 13 13 14 14 14 15 17 17 18 17 17 17 17 17 17 16 16 16 16 16 15 15 14 13 13 13 13 12 12 12 12 12 11 11 10 10 10 10 9 9 9 9 9 9 9 9 9 9
16 16 16 16 17 17 16 15 13 13 13 15 15 15 14 13 12 12 14 15 13 13 13 15 14 14 15 16 17 17 17 17 17 17 17 17 17 17 16 16 16 16 15 15 14 13 13 12 12 12 12 12 12 11 11 11 10 10 10 9 9 9 9 9 9 9 9 9 9
16 16 16 17 17 18 17 17 15 15 15 16 16 15 14 14 13 13 13 15 14 14 15 16 15 15 16 17 16 16 15 16 17 17 17 17 17 17 17 16 16 16 15 15 14 14 13 13 12 12 11 11 11 11 10 10 9 9 9 9 9 9 9 9 9 9 8 9 9
16 16 16 17 17 18 18 18 17 16 16 16 16 16 15 15 15 14 14 15 16 16 16 17 16 16 16 18 17 16 15 16 17 17 17 17 16 16 16 16 16 15 15 14 14 13 13 13 12 12 11 11 10 10 10 9 9 9 9 9 9 9 9 9 9 9 8 9 9
16 16 16 17 17 17 18 18 18 17 16 16 16 16 17 17 16 16 16 17 17 17 17 17 17 16 16 17 17 16 15 15 16 17 17 16 16 16 16 16 15 15 14 14 13 13 13 12 12 12 11 11 10 10 10 9 9 9 9 8 9 9 9 9 9 9 9 9 9
16 16 16 16 16 17 17 17 17 17 17 16 17 17 18 18 17 18 18 18 18 17 17 18 18 17 17 17 17 16 15 13 15 16 16 16 16 16 16 15 15 14 14 13 13 13 13 12 12 12 11 11 11 10 10 9 9 9 9 8 8 9 9 9 9 9 9 9 9
15 15 15 15 16 16 16 16 17 17 17 17 17 17 18 18 18 18 18 18 18 18 18 18 18 18 18 18 18 16 15 13 14 15 15 15 16 15 15 14 14 14 13 13 13 13 13 13 12 12 11 10 10 10 10 9 9 9 9 9 9 9 9 9 9 9 9 10 10
15 15 14 14 15 15 16 16 16 17 17 17 17 17 18 18 18 18 18 18 18 18 18 18 18 18 18 18 18 17 16 14 15 15 15 15 15 15 15 13 14 14 13 12 12 12 12 12 12 12 11 10 10 10 10 9 9 9 9 10 10 9 9 9 9 9 9 10 10
15 14 13 12 14 15 16 16 16 17 17 17 17 17 17 18 18 18 18 18 18 19 18 17 17 18 19 18 18 17 17 16 16 16 15 15 15 15 14 13 13 13 13 11 12 12 12 11 10 10 10 9 9 9 9 9 9 9 9 9 9 9 9 9 9 9 10 10 10
15 15 14 13 14 15 15 16 16 17 17 17 17 17 17 18 18 18 18 19 19 19 19 18 17 18 18 18 18 17 17 17 17 17 16 16 15 14 14 12 12 12 11 11 14 15 14 12 10 9 9 8 8 8 8 9 9 9 9 8 9 9 9 9 10 10 10 10 10
15 15 15 14 15 15 16 16 17 17 17 17 17 17 17 17 17 18 18 19 19 19 19 19 18 17 17 17 18 17 16 15 16 16 16 16 15 15 14 12 11 10 11 12 16 17 17 15 13 11 9 8 8 8 8 8 9 9 9 8 8 8 8 9 9 10 10 9 10
15 15 15 15 15 15 16 16 16 16 17 17 17 17 17 17 17 17 19 19 19 19 19 18 17 17 17 17 18 18 17 15 15 16 16 16 16 16 15 12 11 10 10 14 17 19 18 17 16 14 11 9 8 8 8 7 8 9 9 9 9 9 9 9 10 10 10 9 10
14 14 15 15 15 16 16 16 16 17 17 17 17 17 17 17 18 18 19 19 19 18 17 16 16 15 15 15 17 19 18 17 16 15 15 15 16 16 15 13 11 11 12 16 18 19 19 18 17 16 13 10 8 8 8 8 8 8 8 8 8 9 10 10 9 9 10 10 10
15 14 15 15 15 16 16 16 17 17 17 17 17 17 17 18 18 19 19 19 19 18 17 15 14 13 13 15 17 18 19 18 16 15 15 15 15 15 15 14 13 13 14 17 19 19 19 19 18 17 15 13 9 7 7 7 7 7 7 7 8 9 9 9 9 9 9 10 9
14 14 15 15 15 16 16 16 17 17 17 16 17 17 18 18 18 19 19 20 20 19 16 14 14 14 15 17 17 17 17 17 16 16 16 16 16 15 15 15 14 14 15 18 19 19 19 19 19 18 17 15 10 8 7 7 7 7 7 7 8 9 10 10 10 10 9 9 9
14 15 15 15 16 16 16 16 16 17 16 16 17 18 18 18 19 19 19 19 19 18 17 16 17 18 18 18 18 18 18 17 16 16 16 17 17 16 16 15 15 14 15 19 19 19 19 19 19 18 18 17 12 9 7 7 8 8 8 8 9 10 10 9 9 9 9 9 9
14 15 15 16 16 16 16 16 16 17 17 17 18 18 18 18 19 18 18 18 18 18 18 18 19 19 20 19 19 19 19 18 17 17 17 17 17 17 16 16 15 15 16 19 19 19 19 19 19 19 18 18 14 11 9 8 8 8 9 9 10 10 10 8 8 9 9 10 9
14 15 16 16 16 16 16 17 17 17 18 18 18 18 18 18 18 17 17 17 17 18 19 19 20 20 20 20 20 20 20 19 18 18 17 17 17 17 16 15 14 14 16 19 19 19 19 19 19 18 18 18 14 12 10 10 8 8 8 9 10 10 10 9 9 8 9 9 9
14 15 16 16 16 16 16 17 17 17 18 18 18 18 18 18 18 17 17 16 16 17 18 18 19 19 20 20 20 20 19 17 17 17 18 18 17 17 16 14 11 12 16 19 19 19 19 19 19 18 18 18 13 11 10 10 9 9 9 9 9 9 9 9 9 8 8 8 8
15 15 16 16 16 16 17 17 17 18 18 18 19 18 18 18 18 18 17 17 16 16 16 17 17 18 18 18 19 19 19 18 18 18 18 17 17 17 16 14 11 13 17 19 19 19 19 19 18 18 17 15 11 9 9 10 10 10 10 10 9 9 9 8 8 8 8 8 8
16 16 16 16 16 17 17 17 17 18 18 19 18 18 18 18 18 17 17 17 16 16 17 17 17 17 18 18 18 18 19 19 19 18 18 18 17 17 17 15 14 15 17 19 19 19 19 19 18 18 16 13 9 8 8 9 8 9 10 10 10 9 9 8 8 7 8 8 8
16 16 17 17 17 17 18 18 18 18 19 19 18 18 18 18 17 16 16 16 16 17 17 17 18 18 19 18 18 18 18 19 19 19 18 18 17 17 17 15 15 15 17 19 19 19 19 19 18 17 15 11 9 8 8 7 7 8 9 9 9 9 8 7 7 7 7 7 7
16 16 17 17 18 18 18 18 19 19 19 19 18 17 17 17 16 16 16 16 16 17 17 17 18 18 18 18 17 18 18 18 19 19 18 18 17 17 16 16 15 15 16 18 19 19 19 19 18 17 14 10 9 8 7 7 7 7 8 8 8 8 8 7 6 6 7 7 7
15 17 17 18 19 19 19 19 19 19 19 18 17 17 16 16 15 15 15 16 16 16 17 17 18 18 17 18 17 17 18 18 18 18 18 18 17 17 16 16 15 14 15 18 19 19 19 18 18 17 15 11 9 8 7 6 7 7 7 7 7 7 7 7 6 6 6 7 8
15 17 18 19 19 19 19 20 19 19 18 17 17 17 17 16 15 15 15 15 15 16 16 17 18 18 17 17 17 17 17 17 17 17 17 17 17 17 17 15 14 14 15 18 19 19 19 18 17 17 15 10 9 7 6 6 7 7 7 7 6 6 6 6 5 5 5 6 7
15 17 19 19 19 20 20 19 19 18 17 17 17 17 16 16 15 15 15 14 16 16 15 15 17 18 18 17 16 16 17 17 17 17 17 17 16 16 16 14 14 15 15 17 18 19 18 18 17 16 14 10 8 7 6 6 6 7 7 7 6 6 5 5 5 5 5 5 6
Wind_Direction
209 209 209 209 208 208 207 206 205 202 197 193 192 190 189 187 186 185 184 184 184 183 182 182 181 181 180 180 182 183 184 186 186 186 187 188 187 186 185 184 184 183 182 181 181 182 184 187 186 187 188 190 193 193 191 188 191 193 195 196 201 208 213 215 220 224 228 230 231
209 209 209 209 208 208 207 206 205 203 200 196 194 192 190 189 187 186 185 186 185 183 181 181 180 180 180 180 181 182 183 185 185 185 186 188 186 184 183 183 183 183 182 181 182 182 184 187 187 187 187 188 193 193 188 181 189 195 199 199 202 207 213 218 222 226 230 234 233
209 209 209 209 208 207 206 205 205 203 201 198 195 193 191 190 189 187 186 186 184 182 180 179 178 179 179 179 179 181 182 184 184 184 185 187 185 184 183 183 182 182 182 181 183 183 184 186 187 188 187 188 193 193 190 183 188 196 201 202 203 206 211 217 222 225 229 232 233
208 209 209 210 210 209 207 205 205 203 202 199 195 194 193 192 190 187 185 184 183 182 181 177 175 176 178 177 178 179 181 184 183 183 184 185 184 184 183 183 182 181 181 181 183 184 185 186 187 189 190 191 194 195 193 186 189 194 199 202 204 207 211 217 221 223 226 229 232
209 209 210 211 211 210 209 207 206 204 202 199 195 193 192 190 188 185 183 182 183 183 180 174 171 172 175 175 177 178 180 182 183 183 183 185 184 184 183 184 183 182 180 181 182 184 185 186 188 190 193 193 195 196 195 190 190 193 196 199 203 207 212 218 220 222 225 228 230
208 209 210 212 212 212 211 209 207 205 202 198 197 195 193 190 189 186 184 183 184 182 177 170 167 170 173 175 176 177 179 181 182 182 183 183 184 183 183 184 183 181 180 181 182 183 185 188 189 192 194 194 195 197 198 194 192 192 194 199 201 206 212 218 220 222 225 228 232
208 209 210 211 211 211 211 210 208 205 203 200 200 198 196 192 191 189 186 183 181 179 174 167 168 171 174 175 176 177 178 180 181 181 182 182 183 183 183 183 183 182 181 181 181 182 185 189 191 193 193 195 194 196 198 198 196 194 195 200 202 206 211 218 223 226 230 233 236
209 209 210 211 210 211 211 210 208 206 204 203 203 201 199 195 193 190 187 183 181 178 172 166 170 173 175 175 176 176 177 178 179 180 181 182 182 182 181 182 181 182 182 181 182 183 184 189 193 194 193 194 195 195 195 197 198 198 199 203 206 205 205 206 214 224 231 234 236
208 209 209 210 210 210 210 209 208 207 206 205 205 203 201 197 194 191 189 185 183 177 171 169 172 174 175 175 175 175 175 176 177 179 180 181 181 180 179 180 180 181 182 181 184 184 185 189 194 196 194 194 195 193 191 192 195 198 202 208 211 210 206 202 208 217 226 231 233
208 208 207 209 208 208 208 207 208 208 208 207 206 204 202 198 195 193 190 186 179 174 172 172 173 175 176 175 175 174 173 173 175 176 177 178 178 177 176 177 178 180 181 181 185 185 186 190 195 196 195 196 196 192 189 188 191 196 202 211 213 215 214 210 213 218 224 229 231
208 206 206 207 206 206 206 206 207 208 208 208 207 205 203 200 197 194 190 182 176 175 175 175 174 175 176 176 176 174 172 171 172 173 175 176 176 176 175 176 177 179 180 180 184 186 187 191 194 194 195 196 195 192 189 187 190 195 201 211 213 215 218 220 220 222 226 230 232
208 206 205 206 205 204 204 205 205 206 207 208 206 205 204 201 197 194 189 181 179 178 177 176 175 176 176 176 175 173 172 171 171 172 173 175 175 175 175 175 177 178 179 179 183 185 187 191 192 192 193 196 194 192 190 189 191 195 201 209 211 214 217 221 223 225 228 231 234
208 206 205 204 203 203 203 204 204 205 206 207 206 205 204 202 197 193 188 183 181 179 177 176 176 176 176 175 173 172 171 171 171 172 173 174 175 175 175 175 177 178 179 180 183 185 187 190 190 191 192 195 194 192 191 190 193 197 202 207 211 214 217 219 222 225 229 232 235
209 207 205 203 202 202 202 203 204 204 205 206 205 204 203 201 196 192 188 185 182 179 176 176 177 177 177 176 173 172 171 171 171 171 172 173 174 175 175 176 178 179 180 181 184 186 187 188 190 191 193 195 195 194 193 192 195 199 203 207 211 214 216 218 220 224 228 233 237
210 208 205 203 202 202 202 203 204 204 204 205 204 202 201 199 195 191 188 186 182 179 176 175 177 178 178 177 174 172 171 170 171 172 173 174 175 176 176 177 179 180 181 182 185 187 188 189 190 192 193 196 196 196 194 195 197 200 204 207 211 214 217 219 220 223 227 231 237
211 209 206 203 202 202 202 202 203 203 204 204 202 200 199 198 193 189 187 185 182 179 177 176 176 176 177 177 175 173 172 171 172 173 174 175 176 177 178 178 180 181 182 183 185 187 189 189 191 192 194 196 197 197 196 196 199 201 204 208 211 214 217 219 221 223 227 231 237
213 210 207 204 203 203 203 203 203 203 203 202 200 199 197 195 190 187 186 184 182 179 177 177 175 175 175 175 174 173 173 173 174 175 176 176 177 178 179 180 181 182 183 183 184 186 188 189 191 193 195 197 198 198 198 197 199 201 204 207 211 214 217 219 221 224 228 232 239
214 211 208 206 205 204 204 203 204 204 203 201 199 197 196 193 188 185 185 184 182 180 177 176 176 175 175 174 174 174 174 174 176 177 178 178 178 179 180 181 182 183 183 183 183 185 186 188 190 192 195 197 199 199 199 198 199 201 204 207 210 213 216 218 220 224 228 233 239
217 213 210 208 206 205 205 204 205 204 203 201 199 197 195 193 188 185 184 185 184 181 177 176 176 176 175 174 173 173 174 175 176 177 178 177 177 179 180 181 182 182 183 183 183 184 185 187 189 191 194 196 198 199 199 199 199 201 204 207 210 212 215 218 220 224 228 233 238
218 215 212 210 208 207 206 205 205 205 203 202 199 197 195 193 189 186 185 186 185 182 178 176 176 176 175 173 172 172 173 174 175 176 176 176 177 179 180 181 181 181 182 182 183 184 185 186 188 191 193 195 197 197 198 198 200 202 204 207 210 213 215 218 221 224 229 233 238
220 217 214 211 209 208 207 206 206 205 204 203 200 197 195 193 190 188 187 186 184 182 179 178 177 175 173 171 171 171 171 171 173 174 175 175 176 178 179 180 180 180 181 181 182 183 185 186 188 190 192 194 196 197 197 197 199 202 204 206 209 212 215 218 221 225 229 233 237
222 219 215 212 210 209 208 207 206 206 205 204 201 198 195 194 192 190 187 185 184 182 181 180 177 174 172 170 170 169 168 167 170 172 174 174 176 177 178 178 178 179 179 181 182 183 185 187 188 189 191 193 195 196 196 197 200 203 205 208 210 212 215 219 222 226 230 234 237
223 220 216 213 211 209 208 207 207 206 206 204 201 198 196 194 193 190 187 185 184 183 182 182 178 175 172 170 168 167 165 165 168 170 173 174 175 176 176 177 178 178 179 181 182 183 184 186 187 189 190 192 194 195 196 198 200 204 207 210 211 213 216 220 224 228 231 235 237
223 219 215 212 210 209 208 207 207 206 206 205 202 199 196 194 192 190 187 186 185 184 183 182 178 175 173 170 168 166 165 165 167 169 172 173 174 174 175 176 178 179 180 181 182 183 183 183 185 186 188 190 192 194 196 198 201 205 208 212 214 216 219 222 226 229 232 236 238
223 219 215 211 209 208 207 207 207 206 206 204 202 199 196 194 192 190 188 187 186 185 183 182 177 174 172 171 169 167 166 166 167 168 170 172 173 173 174 176 179 181 182 183 183 183 183 182 182 183 184 187 190 193 196 199 202 205 208 212 217 221 226 229 230 232 233 236 239
223 218 214 211 208 207 207 207 207 206 206 204 201 199 197 195 193 191 189 188 186 185 184 181 177 174 173 172 170 169 168 167 168 169 169 171 172 173 174 177 180 183 184 183 183 183 183 183 181 180 180 183 187 190 194 199 203 205 209 213 219 225 230 235 237 237 238 239 241
223 218 214 210 208 207 207 206 206 206 205 204 201 199 197 195 193 192 190 188 186 185 183 181 176 174 173 172 171 170 169 168 169 169 170 170 172 174 175 177 180 183 184 182 183 183 184 183 182 180 179 181 185 189 193 197 200 204 209 214 221 226 232 237 242 244 245 245 246
225 218 213 210 209 207 206 205 205 205 204 203 201 199 197 195 195 193 191 188 186 184 182 180 176 174 173 173 173 172 171 169 169 169 171 171 173 175 177 178 180 182 183 181 182 184 185 185 183 182 181 181 183 188 193 198 199 203 209 216 222 228 233 236 242 246 249 250 249
226 217 212 210 209 208 206 205 205 205 204 203 201 199 198 197 196 194 192 189 186 184 182 179 175 174 175 175 173 172 171 169 169 169 170 172 175 177 179 179 180 181 182 182 183 185 186 187 186 185 184 183 185 188 192 197 200 206 212 218 224 229 233 236 239 243 247 250 252
224 215 211 209 208 208 206 205 205 204 203 202 201 200 198 198 197 195 193 190 187 185 182 178 175 176 176 174 172 171 171 171 170 170 171 173 176 179 181 182 182 182 182 183 184 186 187 188 189 188 187 186 188 191 196 199 206 213 219 224 229 232 236 238 241 243 247 251 256
223 214 209 208 208 208 207 206 205 203 202 201 201 200 199 198 198 196 194 191 188 185 182 178 177 177 176 173 171 171 171 171 171 172 173 175 177 180 182 184 183 182 182 183 185 187 188 190 191 191 190 189 192 196 202 206 213 219 227 231 234 237 239 242 245 248 252 256 262
224 213 208 207 207 207 207 206 204 203 202 201 201 200 200 199 198 197 195 192 188 185 182 180 179 177 176 173 172 172 172 172 172 173 175 176 178 180 182 185 184 182 181 182 185 187 189 191 193 194 194 193 196 201 208 213 219 226 232 236 239 240 241 242 246 250 254 259 265
225 213 208 207 207 207 206 205 204 203 202 201 201 200 200 199 198 196 194 192 189 186 184 182 180 178 176 174 173 173 172 172 172 173 174 176 178 180 182 184 184 182 180 181 185 187 189 192 194 196 198 199 201 206 211 216 222 229 234 238 239 241 242 243 246 250 255 262 268
228 214 208 207 207 206 205 204 203 202 201 201 201 200 198 197 196 195 194 192 190 188 186 183 181 179 177 174 173 172 172 171 170 172 173 176 178 179 181 181 181 179 179 180 184 187 190 192 195 198 200 202 205 210 215 220 224 229 234 238 239 240 242 243 247 251 256 261 266
232 219 211 207 206 206 205 204 202 201 201 201 200 199 197 196 195 194 193 191 190 188 187 184 182 180 178 175 174 172 171 169 169 171 173 175 177 179 180 179 177 176 177 179 183 186 189 192 195 197 199 202 206 213 221 226 229 233 235 237 238 238 239 241 244 249 253 258 263
234 223 216 211 208 206 205 203 202 201 200 200 199 197 196 194 194 193 192 190 189 188 186 184 182 180 178 176 175 173 172 170 169 170 173 175 177 179 179 178 175 175 176 179 183 186 189 192 194 196 198 200 206 214 222 229 233 236 237 239 239 240 239 239 242 247 252 257 261
230 223 220 217 213 209 205 203 201 200 200 199 198 196 194 192 192 191 190 189 189 188 186 183 182 181 179 176 175 173 172 169 169 170 172 174 177 179 179 178 175 175 176 180 183 186 188 191 192 194 196 200 206 214 220 226 231 235 238 240 242 243 243 243 244 247 250 254 257
223 216 216 218 216 212 207 204 201 200 199 198 196 193 191 190 190 189 189 188 188 188 186 184 183 181 179 175 173 172 171 170 169 170 172 173 176 178 179 177 175 174 176 180 183 185 188 189 191 193 196 202 207 214 219 223 227 232 236 239 242 244 244 245 246 248 249 251 252
216 208 209 215 217 214 210 205 202 200 198 195 193 191 189 188 188 188 187 187 188 187 185 184 183 180 176 172 170 170 170 170 170 170 171 172 175 177 178 176 174 172 174 179 182 185 187 189 190 193 197 204 209 215 220 223 226 230 234 238 242 244 245 244 245 248 250 249 248
209 202 203 210 214 215 212 207 203 199 196 193 190 189 188 187 187 186 185 186 187 187 185 184 181 177 173 170 169 169 169 169 170 170 171 171 173 175 177 176 173 171 173 177 181 184 186 188 190 193 197 205 210 216 221 224 228 231 233 237 240 243 244 244 244 247 251 252 248
206 197 198 206 211 214 212 208 203 198 193 190 189 187 186 185 185 184 184 185 186 186 184 182 179 175 171 169 168 167 167 168 169 170 170 170 170 173 176 176 172 171 172 176 179 183 185 188 190 193 197 204 210 215 220 224 228 232 235 237 240 242 244 245 245 247 250 252 251